User: anonymous   Login
Location: Caltech
(34.1382°N, 118.1253°W)
Time: 09:00:52
(UTC-07:00)
Language:

Cosmos 1758 Rocket - Orbit

View from above orbital plane
View from above orbital plane
View from above satellite
View from above satellite

Ground track
Ground track

The orbit data is extracted from the following two-line orbital elements,

1 16792U 86046B   14297.44095943  .00000690  00000-0  82363-4 0  6112
2 16792 082.4858 031.8441 0023583 232.8163 199.2314 14.82665615531607
Epoch (UTC): 24 October 2014 10:34:58
Eccentricity: 0.0023583
inclination: 82.4858°
perigee height: 604 km
apogee height: 637 km
right ascension of ascending node: 31.8441°
argument of perigee: 232.8163°
revolutions per day: 14.82665615
mean anomaly at epoch: 199.2314°
orbit number at epoch: 53160

The dashed part of the orbit path shows where the satellite is in the earth's shadow,  

DLR